Other Public Products
Issued by NWS Grand Forks, ND

Home | Current Version | Previous Version | Text Only | Print | Product List | Glossary Off
Versions: 1 2 3 4 5 6 7 8 9 10 11 12 13 14 15 16 17 18 19 20 21 22 23 24 25 26 27 28 29 30 31 32 33 34 35 36 37 38 39 40 41 42 43 44 45 46 47 48 49 50

000
FPUS83 KFGF 302310
OPUFGF
PRAIRIE TO PINES WEATHER ROUNDUP
NATIONAL WEATHER SERVICE EASTERN NORTH DAKOTA/GRAND FORKS ND
600 PM CDT THU OCT 30 2014

 **SATELLITE DATA USED TO AUGMENT SKY COVER AT AUTOMATED STATIONS**
 *****  WEATHER ACROSS EASTERN NORTH DAKOTA  *****

CITY           SKY/WX    TMP DP  RH WIND       PRES   REMARKS
GRAND FORKS    PTCLDY    37  17  44 N23       30.44R
GRAND FORKS AF CLEAR     35  16  45 N16G25    30.45R
GRAND CITY NWS   N/A     34 N/A N/A N13         N/A  WCI  25
BUXTON         NOT AVBL
DEVILS LAKE    CLEAR     36  14  41 N17       30.46R
FARGO          CLOUDY    36  23  59 N20G28    30.41R
WAHPETON ARPT  CLOUDY    34  23  64 N22G33    30.39R WCI  22
$$

 *****  WEATHER ACROSS CENTRAL AND WESTERN NORTH DAKOTA  *****

CITY           SKY/WX    TMP DP  RH WIND       PRES   REMARKS
JAMESTOWN      NOT AVBL
BISMARCK       CLOUDY    36  29  75 N13       30.49R
MINOT          CLEAR     31  20  63 N6        30.51R
MINOT AFB      CLEAR     32  22  65 N7        30.50R
GARRISON         N/A     32  24  72 NE8       30.49R WCI  25
WILLISTON      CLOUDY    37  30  75 E7        30.48S
DICKINSON      CLOUDY    34  30  85 E8        30.43R
HETTINGER      CLOUDY    36  29  75 N10       30.44R
$$

 *****  OTHER OBSERVATIONS NORTHEAST NORTH DAKOTA  *****

CITY           SKY/WX    TMP DP  RH WIND       PRES   REMARKS
WALHALLA         N/A     32  14  47 N20G30    30.50R WCI  20
LANGDON        FAIR      32  18  55 N14       30.46R WCI  22
CAVALIER       FAIR      36  16  44 N21G26    30.47R
GRAFTON        FAIR      36  16  44 N24G31    30.45R
CANDO          FAIR      32  18  55 N13       30.49R WCI  22
FORT TOTTEN    NOT AVBL
ROLLA          FAIR      32  16  51 N12       30.49R WCI  23
RUGBY          FAIR      32  19  59 N9        30.49R WCI  24
 ***** THE ABOVE OBSERVATIONS ARE NON NWS ARE NOT QUALITY
        CONTROLLED AND MAY MIS-REPORT RAIN FOR SNOW...
$$

 *****  OTHER OBSERVATIONS SOUTHEAST NORTH DAKOTA *****

CITY           SKY/WX    TMP DP  RH WIND       PRES   REMARKS
COOPERSTOWN    NOT AVBL
VALLEY CITY    MOCLDY    34  23  64 N16       30.44R WCI  23
OAKES            N/A     34  27  75 N21G29    30.43R WCI  22
GWINNER        CLOUDY    36  27  69 N23G30    30.44R
BUFFALO        NOT AVBL
WYNDMERE         N/A     36  25  64 N15         N/A
 ***** THE ABOVE OBSERVATIONS ARE NON NWS ARE NOT QUALITY
       CONTROLLED AND MAY MIS-REPORT RAIN FOR SNOW...
$$

  *****  WEATHER ACROSS NORTHERN MINNESOTA  *****

CITY           SKY/WX    TMP DP  RH WIND       PRES   REMARKS
FLAG ISLAND    PTCLDY    34  19  55 N28G33    30.37R WCI  20
WARROAD        PTCLDY    32  18  55 N14G20    30.39R WCI  22
ROSEAU         CLEAR     34  18  51 N17G25    30.40R WCI  23
HALLOCK        CLEAR     34  23  64 N15G23    30.45R WCI  24
THF RVR FALLS  PTCLDY    34  19  55 N17G24    30.40R WCI  23
HALSTAD          N/A     35  18  48 N21         N/A  WCI  24
FOSSTON        CLOUDY    32  21  64 N16G29    30.37R WCI  21
BAUDETTE       CLEAR     31  17  56 N16G26    30.34R WCI  20
WASKISH        CLEAR     32  18  55 NW13G25   30.33R WCI  22
CROOKSTON      PTCLDY    36  21  55 N21G28    30.43R
$$
  *****  WEATHER ACROSS CENTRAL AND WEST MINNESOTA  *****

CITY           SKY/WX    TMP DP  RH WIND       PRES   REMARKS
BEMIDJI        MOCLDY    32  17  53 N18G24    30.31R WCI  21
PARK RAPIDS    PTCLDY    33  20  58 NW16      30.29R WCI  23
WADENA         CLOUDY    34  25  69 N17G25    30.29R WCI  23
DETROIT LAKES  CLOUDY    34  25  69 N22G29    30.36R WCI  22
MOORHEAD       MOCLDY    36  27  69 N20       30.41R
FERGUS FALLS   CLOUDY    34  23  64 N23G36    30.37R WCI  22
ELBOW LAKE     CLOUDY    35  27  74 N21G29    30.33R WCI  23
MORRIS MN      NOT AVBL
STAPLES        CLOUDY    36  25  64 NW21G29   30.27R
WHEATON        CLOUDY    34  27  75 NW21G26   30.40R WCI  22
$$
  *****  WEATHER ELSEWHERE ACROSS MINNESOTA  *****

CITY           SKY/WX    TMP DP  RH WIND       PRES   REMARKS
DULUTH         MOCLDY    38  27  64 NW23G31   30.12R
INTRNTL FALLS  CLEAR     28  21  75 N17G25    30.28R WCI  16
ELY            LGT SNOW  30  28  93 NW15G32   30.13R WCI  19
CLOQUET        LGT SNOW  36  30  80 NW17G32   30.15R
BRAINERD       CLOUDY    37  27  67 NW20G28   30.24R
HIBBING        CLOUDY    33  23  66 N23G35    30.19R WCI  21
ALEXANDRIA     CLOUDY    37  27  67 N18G32    30.28R
SAINT CLOUD    CLOUDY    43  30  60 NW17G25   30.21R
MINNEAPOLIS    CLOUDY    44  34  67 NW14G26   30.17R
$$

  *****  WEATHER ACROSS SOUTH DAKOTA  *****

CITY           SKY/WX    TMP DP  RH WIND       PRES   REMARKS
SIOUX FALLS    CLOUDY    43  36  76 N18G25    30.28R
BROOKINGS      NOT AVBL
WATERTOWN      CLOUDY    36  30  79 N21G29    30.33R
HURON          CLOUDY    40  30  67 N22G30    30.38R
SISSETON         N/A     35  28  75 N20G26    30.38R WCI  24
ABERDEEN       CLOUDY    38  27  64 N22       30.42R
MITCHELL       CLOUDY    44  33  65 N20G26    30.36R
PIERRE         CLEAR     42  31  64 N15       30.40R
MOBRIDGE       CLOUDY    38  30  73 N12       30.44R
RAPID CITY     CLEAR     45  32  60 NE14      30.39R
$$

  *****  SOME WEATHER IN NEARBY STATES *****

CITY           SKY/WX    TMP DP  RH WIND       PRES   REMARKS
GLASGOW MT     CLOUDY    35  29  78 SE16      30.40S
GREAT FALLS MT MOCLDY    57  32  38 E9        30.15F
CHEYENNE WY    CLEAR     54  25  32 E6        30.35R
SCOTTSBLUFF NE CLEAR     61  26  26 N12       30.31R
OMAHA NE       PTCLDY    56  39  53 NW16G31   30.15R
DES MOINES IA  PTCLDY    59  37  44 NW12      30.06R
DAVENPORT IA   CLOUDY    49  37  63 NE5       30.07R
CHICAGO IL     CLOUDY    49  35  58 SW8       30.06R
EAU CLAIRE WI  CLOUDY    44  35  70 N13G18    30.11R
LA CROSSE WI   CLOUDY    46  38  73 CALM      30.09R
$$

  *****  SOME NATIONAL WEATHER *****

CITY           SKY/WX    TMP DP  RH WIND       PRES   REMARKS
LA GUARDIA NY  CLEAR     53  37  54 NW14      30.00R
RALEIGH NC     PTCLDY    55  45  68 E3        30.00R
ATLANTA GA     CLEAR     61  36  39 NW7       29.99R
NEW ORLEANS LA PTCLDY    67  43  41 NW7       30.03S
OKLAHOMA CITY  CLEAR     73  34  23 N13       30.12S
ALBUQUERQUE NM SUNNY     72  17  12 S5        30.26F
SALT LAKE CITY MOSUNNY   69  30  23 NW5       30.14F
LOS ANGELES CA PTSUNNY   68  61  78 W14       29.94F
BOISE ID       PTSUNNY   73  31  21 S12       29.97F
SEATTLE WA     CLOUDY    58  55  90 CALM      29.76F
$$

*** WEATHER ACROSS MANITOBA...SASKATCHEWAN AND ONTARIO ***
                ***ONTARIO***

CITY           SKY/WX    TMP DP  RH WIND       PRES   REMARKS
GERALDTON      LGT SNOW  28  28 100 N9        30.07  WCI  20
THUNDER BAY    FLURRIES  36  32  87 N7        30.07R
SIOUX LOOKOUT  FLURRIES  27  19  74 N17G29    30.26R WCI  14
TORONTO        MOCLDY    45  34  65 W5        30.05R
BIG TROUT LK   PTCLDY    27  25  93 N8        30.32R WCI  18
PICKLE LAKE    LGT SNOW  25  21  86 N10G22    30.25R WCI  15
DRYDEN         FLURRIES  27  19  74 N15G32    30.28R WCI  15
KENORA         MOCLDY    28  16  59 N18G29    30.35R WCI  16
$$
                *** MANITOBA***

CITY           SKY/WX    TMP DP  RH WIND       PRES   REMARKS
BRANDON        PTCLDY    32  18  55 NE12      30.53R WCI  23
DAUPHIN        CLEAR     30  23  74 NE9       30.57R WCI  22
ISLAND LAKE    CLOUDY    28  21  74 N7        30.49R WCI  21
PILOT MOUND      N/A     34  19  55 N12G18      N/A
THE PAS        PTCLDY    28  21  74 SE2       30.55R
THOMPSON       CLEAR     23  16  74 NW5       30.51R WCI  17
WINNIPEG       PTCLDY    30  16  55 N16G23    30.51R WCI  19
LYNN LAKE      CLEAR     28  18  64 SW2       30.46F
CHURCHILL      CLOUDY    21  18  86 NW15      30.46R WCI   8
GILLAM         MOCLDY    21  16  79 N14G21    30.49R WCI   8
$$
                ***SASKATCHEWAN***

CITY           SKY/WX    TMP DP  RH WIND       PRES   REMARKS
ESTEVAN        CLOUDY    30  23  74 NE9       30.51R WCI  22
KINDERSLEY     CLOUDY    34  28  80 SE18G26   30.31F WCI  23
LLOYDMINSTER   CLOUDY    32  27  80 SE16G28   30.27F WCI  21
PRINCE ALBERT  PTCLDY    32  21  64 S9        30.48F WCI  24
REGINA         PTCLDY    28  23  80 SE9       30.49F WCI  20
YORKTON        CLEAR     30  21  69 NE2       30.53S



USA.gov is the U.S. government's official web portal to all federal, state and local government web resources and services.